Location: Spring Creek
(38.2870°N, 100.2160°W)
Time: 07:08:21
(UTC+00:00)

SL-4 R/B - Pass Details

Date: 08 May 2021
Orbit: 427 x 663 km, 51.6° (Epoch: 21 June)

Event Time Altitude Azimuth Distance (km) Brightness Sun altitude
Rises 03:43:05 0° 308° (NW) 2,819 7.2 -21.2°
Reaches altitude 10° 03:45:18 10° 307° (NW) 1,951 6.0 -21.5°
Maximum altitude 03:49:48 81° 221° (SW) 643 2.2 -22.1°
Enters shadow 03:50:25 66° 153° (SSE) 692 2.2 -22.2°
